Location: Lake Zurich
(42.1970°N, 88.0930°W)
Time: 23:24:43
(UTC-05:00)

Amateur Radio Satellites - All Passes

Search period start: 01 September 2014 22:54
Search period end: 02 September 2014 22:54
Location: Lake Zurich, 42.1970°N, 88.0930°W

Satellite Date Start Highest point End Downlink Frequencies (MHz)
Time Altitude Azimuth
FUNcube-1 01 Sep 23:22:34 23:25:53 23° 266° (W) 23:29:17 145.950 - 145.970 MHz USB
Saudisat 1A 01 Sep 23:23:22 23:27:18 31° 313° (NW) 23:31:14 436.775 MHz
MaSat-1 01 Sep 23:46:09 23:48:18 14° 261° (W) 23:50:20 437.345 MHz
PCSat 01 Sep 23:53:25 23:56:16 14° 37° (NE) 23:59:07 145.825 MHz
KITSAT 1 02 Sep 00:20:56 00:28:50 56° 308° (NW) 00:36:47 435.175 FM
Sapphire 02 Sep 01:06:13 01:11:18 39° 52° (NE) 01:16:21 437.095 MHz 1200 baud AX-25 AFSK
PCSat 02 Sep 01:35:17 01:40:43 70° 58° (ENE) 01:46:06 145.825 MHz
Oscar 19 02 Sep 01:39:43 01:44:00 26° 94° (E) 01:48:15 437.125 CW, 437.150 USB
AO-Echo 02 Sep 01:49:46 01:52:03 13° 90° (E) 01:54:21 ?
Oscar 16 02 Sep 02:14:27 02:19:35 56° 100° (E) 02:24:39 437.025 USB, Beacon 2401.1428
Oscar 10/S400 02 Sep 02:14:59 03:21:15 43° 222° (SW) 08:58:01 145.825 - 145.975 CW/USB, Beacon 145.810 USB
ITAMSAT 1 02 Sep 02:17:29 02:21:43 25° 94° (E) 02:25:56 435.822 SSB
KITSAT 1 02 Sep 02:20:56 02:26:15 18° 333° (NNW) 02:31:35 435.175 FM
SO-50 02 Sep 02:23:48 02:27:00 20° 111° (ESE) 02:30:16 436.795 FM
Uribyol 2 02 Sep 02:26:32 02:31:11 32° 96° (E) 02:35:48 436.500 FM
JAS-1B 02 Sep 02:32:28 02:38:18 33° 94° (E) 02:43:30 435.800 - 435.900 CW/SSB
TMSAT-1 02 Sep 02:40:25 02:43:02 14° 89° (E) 02:45:39 436.925 FM
AO-27 02 Sep 02:46:39 02:51:39 47° 99° (E) 02:56:39 436.795 MHz FM
Sapphire 02 Sep 02:49:51 02:54:37 32° 250° (WSW) 02:59:21 437.095 MHz 1200 baud AX-25 AFSK
OPAL 02 Sep 03:18:18 03:22:10 23° 61° (ENE) 03:26:06 ?
Oscar 19 02 Sep 03:18:37 03:23:27 40° 291° (WNW) 03:28:16 437.125 CW, 437.150 USB
PCSat 02 Sep 03:20:11 03:23:31 17° 256° (WSW) 03:26:50 145.825 MHz
AO-Echo 02 Sep 03:26:37 03:31:16 63° 287° (WNW) 03:35:56 ?
Gurwin Techsat 1B 02 Sep 03:28:19 03:33:31 53° 100° (E) 03:38:41 435.225 FM
Oscar 16 02 Sep 03:54:48 03:58:30 20° 298° (WNW) 04:02:10 437.025 USB, Beacon 2401.1428
ITAMSAT 1 02 Sep 03:56:30 04:01:21 41° 291° (WNW) 04:06:11 435.822 SSB
SO-50 02 Sep 04:02:51 04:07:12 48° 309° (NW) 04:11:39 436.795 FM
Uribyol 2 02 Sep 04:06:01 04:10:36 32° 293° (WNW) 04:15:11 436.500 FM
UOSAT-12 02 Sep 04:09:46 04:13:00 19° 110° (ESE) 04:16:17 437.025 FM, 437.400 FM
TMSAT-1 02 Sep 04:18:13 04:23:31 75° 286° (WNW) 04:28:47 436.925 FM
Uosat F 02 Sep 04:19:52 04:23:41 22° 94° (E) 04:27:29 435.120 FM
KITSAT 1 02 Sep 04:22:48 04:25:43 12° 4° (N) 04:28:38 435.175 FM
JAS-1B 02 Sep 04:22:59 04:29:03 37° 296° (WNW) 04:34:25 435.800 - 435.900 CW/SSB
AO-27 02 Sep 04:26:52 04:30:51 23° 296° (WNW) 04:34:51 436.795 MHz FM
AO-7 02 Sep 04:33:25 04:40:59 38° 98° (E) 04:48:28 29.400 - 29.500 MHz
OPAL 02 Sep 04:55:49 05:00:42 49° 258° (WSW) 05:05:42 ?
Gurwin Techsat 1B 02 Sep 05:09:10 05:13:05 21° 297° (WNW) 05:17:00 435.225 FM
STRAND 1 02 Sep 05:09:14 05:10:23 11° 57° (ENE) 05:11:33 ?
JAS-2 02 Sep 05:30:53 05:33:07 12° 90° (E) 05:35:25 435.800 - 435.900 CW/SSB, 435.910 FM
UOSAT-12 02 Sep 05:48:13 05:52:45 53° 308° (NW) 05:57:22 437.025 FM, 437.400 FM
Uosat F 02 Sep 05:57:55 06:02:40 45° 290° (WNW) 06:07:24 435.120 FM
TMSAT-1 02 Sep 06:01:22 06:02:31 11° 304° (NW) 06:03:40 436.925 FM
Saudisat 1A 02 Sep 06:09:47 06:13:46 32° 48° (NE) 06:17:44 436.775 MHz
KITSAT 1 02 Sep 06:18:28 06:24:47 24° 34° (NE) 06:31:03 435.175 FM
RS-15 02 Sep 06:25:00 06:34:26 34° 106° (ESE) 06:43:43 29.354 - 29.394 USB, Beacon 29.352 USB
AO-7 02 Sep 06:26:01 06:33:56 51° 297° (WNW) 06:41:48 29.400 - 29.500 MHz
STRAND 1 02 Sep 06:43:38 06:48:43 79° 75° (ENE) 06:53:50 ?
Hamsat 02 Sep 06:58:46 07:03:08 84° 284° (WNW) 07:07:26 145.90 MHz
JAS-2 02 Sep 07:13:28 07:18:45 80° 285° (WNW) 07:24:30 435.800 - 435.900 CW/SSB, 435.910 FM
UOSAT-12 02 Sep 07:32:39 07:34:00 11° 329° (NNW) 07:35:21 437.025 FM, 437.400 FM
SO-67 02 Sep 07:38:05 07:41:19 35° 98° (E) 07:44:31 435.3500 MHz FM
Saudisat 1A 02 Sep 07:49:26 07:53:18 30° 245° (WSW) 07:57:08 436.775 MHz
KITSAT 1 02 Sep 08:13:22 08:21:30 80° 58° (ENE) 08:29:34 435.175 FM
AO-7 02 Sep 08:21:55 08:24:47 12° 318° (NW) 08:27:38 29.400 - 29.500 MHz
STRAND 1 02 Sep 08:26:32 08:28:30 12° 271° (W) 08:30:28 ?
RS-15 02 Sep 08:34:56 08:45:57 69° 308° (NW) 08:56:53 29.354 - 29.394 USB, Beacon 29.352 USB
ISS 02 Sep 08:47:36 08:49:38 15° 132° (SE) 08:51:40 145.800 FM
JAS-2 02 Sep 09:01:59 09:03:07 11° 303° (WNW) 09:04:17 435.800 - 435.900 CW/SSB, 435.910 FM
HO-68 02 Sep 09:03:30 09:09:35 29° 95° (E) 09:15:37 435.675 MHz FM
SO-67 02 Sep 09:12:16 09:14:03 14° 294° (WNW) 09:15:49 435.3500 MHz FM
KITSAT 1 02 Sep 10:10:10 10:15:59 22° 257° (WSW) 10:21:48 435.175 FM
ISS 02 Sep 10:22:42 10:26:00 66° 328° (NNW) 10:29:20 145.800 FM
UKube-1 02 Sep 10:33:23 10:37:45 86° 285° (WNW) 10:42:06 145.840 MHz, 145.915 MHz
Oscar 11 02 Sep 10:36:33 10:40:56 70° 102° (ESE) 10:45:16 145.825 FM, Beacon 2401.500 USB
HO-68 02 Sep 10:50:39 10:57:35 56° 293° (WNW) 11:04:31 435.675 MHz FM
RS-15 02 Sep 10:51:51 11:00:45 27° 337° (NNW) 11:09:43 29.354 - 29.394 USB, Beacon 29.352 USB
SO-50 02 Sep 10:53:43 10:57:43 26° 44° (NE) 11:01:45 436.795 FM
FUNcube-1 02 Sep 11:09:45 11:14:18 65° 101° (E) 11:18:52 145.950 - 145.970 MHz USB
MaSat-1 02 Sep 11:55:50 11:59:45 24° 104° (ESE) 12:03:49 437.345 MHz
Oscar 16 02 Sep 11:56:43 11:58:30 12° 57° (ENE) 12:00:17 437.025 USB, Beacon 2401.1428
ISS 02 Sep 12:00:42 12:03:13 20° 347° (NNW) 12:05:44 145.800 FM
PANSAT 02 Sep 12:09:55 12:10:44 11° 178° (S) 12:11:33 not established
Oscar 11 02 Sep 12:14:47 12:16:31 12° 299° (WNW) 12:18:16 145.825 FM, Beacon 2401.500 USB
AO-27 02 Sep 12:30:52 12:31:49 11° 56° (NE) 12:32:46 436.795 MHz FM
SO-50 02 Sep 12:33:53 12:38:30 48° 242° (WSW) 12:43:09 436.795 FM
UOSAT-12 02 Sep 12:37:48 12:41:36 23° 43° (NE) 12:45:22 437.025 FM, 437.400 FM
HO-68 02 Sep 12:41:45 12:43:45 11° 313° (NW) 12:45:46 435.675 MHz FM
FUNcube-1 02 Sep 12:47:45 12:50:10 14° 297° (WNW) 12:52:36 145.950 - 145.970 MHz USB
Oscar 19 02 Sep 12:56:56 13:01:41 39° 69° (ENE) 13:06:29 437.125 CW, 437.150 USB
AO-Echo 02 Sep 13:02:48 13:06:27 21° 65° (ENE) 13:10:03 ?
RS-15 02 Sep 13:09:53 13:18:11 23° 13° (NNE) 13:26:35 29.354 - 29.394 USB, Beacon 29.352 USB
Gurwin Techsat 1B 02 Sep 13:13:57 13:16:04 12° 58° (ENE) 13:18:11 435.225 FM
JAS-1B 02 Sep 13:14:44 13:23:28 42° 65° (ENE) 13:31:14 435.800 - 435.900 CW/SSB
MaSat-1 02 Sep 13:31:40 13:36:27 46° 302° (WNW) 13:41:26 437.345 MHz
Oscar 16 02 Sep 13:31:51 13:37:01 84° 75° (ENE) 13:42:14 437.025 USB, Beacon 2401.1428
ITAMSAT 1 02 Sep 13:35:53 13:40:40 40° 69° (ENE) 13:45:28 435.822 SSB
ISS 02 Sep 13:38:34 13:40:52 17° 7° (N) 13:43:09 145.800 FM
Uribyol 2 02 Sep 13:44:51 13:49:49 51° 71° (ENE) 13:54:49 436.500 FM
AO-7 02 Sep 13:46:25 13:49:44 13° 43° (NE) 13:53:04 29.400 - 29.500 MHz
TMSAT-1 02 Sep 14:01:08 14:05:17 24° 64° (ENE) 14:09:26 436.925 FM
AO-27 02 Sep 14:05:17 14:10:26 76° 74° (ENE) 14:15:37 436.795 MHz FM
UOSAT-12 02 Sep 14:17:27 14:22:03 53° 242° (WSW) 14:26:35 437.025 FM, 437.400 FM
Oscar 19 02 Sep 14:36:49 14:41:07 26° 265° (W) 14:45:27 437.125 CW, 437.150 USB
AO-Echo 02 Sep 14:40:08 14:44:56 46° 261° (W) 14:49:37 ?
Gurwin Techsat 1B 02 Sep 14:49:54 14:55:12 86° 75° (ENE) 15:00:33 435.225 FM
JAS-1B 02 Sep 15:04:16 15:13:43 54° 260° (W) 15:22:11 435.800 - 435.900 CW/SSB
ISS 02 Sep 15:15:04 15:18:15 41° 27° (NNE) 15:21:25 145.800 FM
Oscar 16 02 Sep 15:15:17 15:17:01 12° 272° (W) 15:18:45 437.025 USB, Beacon 2401.1428
ITAMSAT 1 02 Sep 15:16:02 15:20:16 26° 265° (W) 15:24:32 435.822 SSB
RS-15 02 Sep 15:23:22 15:34:02 51° 45° (NE) 15:45:03 29.354 - 29.394 USB, Beacon 29.352 USB
Uribyol 2 02 Sep 15:25:53 15:29:35 20° 267° (W) 15:33:19 436.500 FM
AO-7 02 Sep 15:32:40 15:40:41 54° 64° (ENE) 15:48:41 29.400 - 29.500 MHz
Uosat F 02 Sep 15:33:30 15:37:54 32° 67° (ENE) 15:42:20 435.120 FM
TMSAT-1 02 Sep 15:39:50 15:44:54 46° 261° (W) 15:50:00 436.925 FM
AO-27 02 Sep 15:48:08 15:50:31 13° 271° (W) 15:52:54 436.795 MHz FM
Sapphire 02 Sep 15:49:00 15:53:40 31° 109° (ESE) 15:58:22 437.095 MHz 1200 baud AX-25 AFSK
PCSat 02 Sep 16:17:21 16:22:38 58° 115° (ESE) 16:27:58 145.825 MHz
Gurwin Techsat 1B 02 Sep 16:34:03 16:35:51 12° 272° (W) 16:37:39 435.225 FM
ISS 02 Sep 16:52:00 16:54:52 27° 224° (SW) 16:57:44 145.800 FM
OPAL 02 Sep 17:05:05 17:10:02 42° 100° (E) 17:14:55 ?
Uosat F 02 Sep 17:12:17 17:16:40 30° 264° (W) 17:21:04 435.120 FM
AO-7 02 Sep 17:26:14 17:33:41 36° 263° (W) 17:41:11 29.400 - 29.500 MHz
JAS-2 02 Sep 17:26:24 17:32:01 45° 70° (ENE) 17:37:09 435.800 - 435.900 CW/SSB, 435.910 FM
Sapphire 02 Sep 17:31:52 17:36:56 40° 308° (NW) 17:42:03 437.095 MHz 1200 baud AX-25 AFSK
RS-15 02 Sep 17:35:56 17:46:32 54° 248° (WSW) 17:57:35 29.354 - 29.394 USB, Beacon 29.352 USB
Hamsat 02 Sep 17:52:11 17:56:29 73° 76° (ENE) 18:00:52 145.90 MHz
PCSat 02 Sep 18:02:04 18:06:26 24° 314° (NW) 18:10:50 145.825 MHz
SO-67 02 Sep 18:12:52 18:14:46 14° 67° (ENE) 18:16:41 435.3500 MHz FM
OPAL 02 Sep 18:44:22 18:48:41 27° 297° (WNW) 18:52:58 ?
STRAND 1 02 Sep 18:54:20 18:58:32 25° 95° (E) 19:02:44 ?
JAS-2 02 Sep 19:12:26 19:17:16 25° 265° (W) 19:21:46 435.800 - 435.900 CW/SSB, 435.910 FM
Hamsat 02 Sep 19:32:39 19:32:58 10° 272° (W) 19:33:16 145.90 MHz
HO-68 02 Sep 19:33:32 19:39:01 25° 57° (ENE) 19:44:31 435.675 MHz FM
SO-67 02 Sep 19:44:21 19:47:31 34° 263° (W) 19:50:43 435.3500 MHz FM
STRAND 1 02 Sep 20:33:06 20:37:50 39° 291° (WNW) 20:42:33 ?
HO-68 02 Sep 21:18:59 21:26:06 70° 256° (WSW) 21:33:15 435.675 MHz FM
UKube-1 02 Sep 21:29:09 21:33:30 88° 77° (ENE) 21:37:52 145.840 MHz, 145.915 MHz
Oscar 11 02 Sep 21:31:52 21:36:07 58° 74° (ENE) 21:40:25 145.825 FM, Beacon 2401.500 USB
MaSat-1 02 Sep 21:48:52 21:53:18 48° 58° (ENE) 21:57:07 437.345 MHz
Saudisat 1A 02 Sep 21:55:37 21:59:57 61° 120° (ESE) 22:04:19 436.775 MHz
FUNcube-1 02 Sep 22:06:48 22:10:53 52° 73° (ENE) 22:15:05 145.950 - 145.970 MHz USB
